owner,sensor,date,latitude,longitude,mass_concentration_of_chlorophyll_in_sea_water,qcFlag 
SCCF RECON,ioos:station:SCCF:53:1,2016-08-03T18:00:00Z,26.6493,-81.8810,5.66,1111122 
SCCF RECON,ioos:station:SCCF:53:1,2016-08-03T19:00:00Z,26.6493,-81.8810,5.68,1111122 
SCCF RECON,ioos:station:SCCF:53:1,2016-08-03T20:00:00Z,26.6493,-81.8810,5.43,1111122 
SCCF RECON,ioos:station:SCCF:53:1,2016-08-03T21:00:00Z,26.6493,-81.8810,5.31,1111122 
SCCF RECON,ioos:station:SCCF:53:1,2016-08-03T22:00:00Z,26.6493,-81.8810,5.35,1111122 
SCCF RECON,ioos:station:SCCF:53:1,2016-08-03T23:00:00Z,26.6493,-81.8810,5.96,1111122 
SCCF RECON,ioos:station:SCCF:53:1,2016-08-04T00:00:00Z,26.6493,-81.8810,5.66,1111122 
SCCF RECON,ioos:station:SCCF:53:1,2016-08-04T01:00:00Z,26.6493,-81.8810,5.53,1111122 
SCCF RECON,ioos:station:SCCF:53:1,2016-08-04T02:00:00Z,26.6493,-81.8810,5.85,1111122 
SCCF RECON,ioos:station:SCCF:53:1,2016-08-04T03:00:00Z,26.6493,-81.8810,5.64,1111122 
SCCF RECON,ioos:station:SCCF:53:1,2016-08-04T04:00:00Z,26.6493,-81.8810,5.75,1111122 
SCCF RECON,ioos:station:SCCF:53:1,2016-08-04T05:00:00Z,26.6493,-81.8810,5.75,1111122 
SCCF RECON,ioos:station:SCCF:53:1,2016-08-04T06:00:00Z,26.6493,-81.8810,5.7,1111122 
SCCF RECON,ioos:station:SCCF:53:1,2016-08-04T07:00:00Z,26.6493,-81.8810,5.7,1111122 
SCCF RECON,ioos:station:SCCF:53:1,2016-08-04T08:00:00Z,26.6493,-81.8810,5.69,1111122 
SCCF RECON,ioos:station:SCCF:53:1,2016-08-04T09:00:00Z,26.6493,-81.8810,5.74,1111122 
SCCF RECON,ioos:station:SCCF:53:1,2016-08-04T10:00:00Z,26.6493,-81.8810,5.66,1111122 
SCCF RECON,ioos:station:SCCF:53:1,2016-08-04T11:00:00Z,26.6493,-81.8810,5.64,1111122 
SCCF RECON,ioos:station:SCCF:53:1,2016-08-04T12:00:00Z,26.6493,-81.8810,5.75,1111122 
SCCF RECON,ioos:station:SCCF:53:1,2016-08-04T13:00:00Z,26.6493,-81.8810,5.65,1111122 
SCCF RECON,ioos:station:SCCF:53:1,2016-08-04T14:00:00Z,26.6493,-81.8810,5.7,1111122 
SCCF RECON,ioos:station:SCCF:53:1,2016-08-04T15:00:00Z,26.6493,-81.8810,5.55,1111122 
SCCF RECON,ioos:station:SCCF:53:1,2016-08-04T16:00:00Z,26.6493,-81.8810,5.7,1111122 
SCCF RECON,ioos:station:SCCF:53:1,2016-08-04T17:00:00Z,26.6493,-81.8810,5.75,1111122 
SCCF RECON,ioos:station:SCCF:53:1,2016-08-04T18:00:00Z,26.6493,-81.8810,5.82,1111122 
SCCF RECON,ioos:station:SCCF:53:1,2016-08-04T19:00:00Z,26.6493,-81.8810,5.77,1111122 
SCCF RECON,ioos:station:SCCF:53:1,2016-08-04T20:00:00Z,26.6493,-81.8810,5.55,1111122 
SCCF RECON,ioos:station:SCCF:53:1,2016-08-04T21:00:00Z,26.6493,-81.8810,5.44,1111122 
SCCF RECON,ioos:station:SCCF:53:1,2016-08-04T22:00:00Z,26.6493,-81.8810,5.43,1111122 
SCCF RECON,ioos:station:SCCF:53:1,2016-08-04T23:00:00Z,26.6493,-81.8810,5.67,1111122 
SCCF RECON,ioos:station:SCCF:53:1,2016-08-05T00:00:00Z,26.6493,-81.8810,6.03,1111122 
SCCF RECON,ioos:station:SCCF:53:1,2016-08-05T01:00:00Z,26.6493,-81.8810,5.96,1111122 
SCCF RECON,ioos:station:SCCF:53:1,2016-08-05T02:00:00Z,26.6493,-81.8810,5.53,1111122 
SCCF RECON,ioos:station:SCCF:53:1,2016-08-05T03:00:00Z,26.6493,-81.8810,5.6,1111122 
SCCF RECON,ioos:station:SCCF:53:1,2016-08-05T04:00:00Z,26.6493,-81.8810,5.54,1111122 
SCCF RECON,ioos:station:SCCF:53:1,2016-08-05T05:00:00Z,26.6493,-81.8810,5.45,1111122 
SCCF RECON,ioos:station:SCCF:53:1,2016-08-05T06:00:00Z,26.6493,-81.8810,5.46,1111122 
SCCF RECON,ioos:station:SCCF:53:1,2016-08-05T07:00:00Z,26.6493,-81.8810,5.53,1111122 
SCCF RECON,ioos:station:SCCF:53:1,2016-08-05T08:00:00Z,26.6493,-81.8810,5.63,1111122 
SCCF RECON,ioos:station:SCCF:53:1,2016-08-05T09:00:00Z,26.6493,-81.8810,5.58,1111122 
SCCF RECON,ioos:station:SCCF:53:1,2016-08-05T10:00:00Z,26.6493,-81.8810,5.7,1111122 
SCCF RECON,ioos:station:SCCF:53:1,2016-08-05T11:00:00Z,26.6493,-81.8810,5.64,1111122 
SCCF RECON,ioos:station:SCCF:53:1,2016-08-05T12:00:00Z,26.6493,-81.8810,5.53,1111122 
SCCF RECON,ioos:station:SCCF:53:1,2016-08-05T13:00:00Z,26.6493,-81.8810,5.47,1111122 
SCCF RECON,ioos:station:SCCF:53:1,2016-08-05T14:00:00Z,26.6493,-81.8810,5.43,1111122 
SCCF RECON,ioos:station:SCCF:53:1,2016-08-05T15:00:00Z,26.6493,-81.8810,5.43,1111122 
SCCF RECON,ioos:station:SCCF:53:1,2016-08-05T16:00:00Z,26.6493,-81.8810,5.45,1111122 
SCCF RECON,ioos:station:SCCF:53:1,2016-08-05T17:00:00Z,26.6493,-81.8810,5.56,1111122 
SCCF RECON,ioos:station:SCCF:53:1,2016-08-05T18:00:00Z,26.6493,-81.8810,5.59,1111122 
SCCF RECON,ioos:station:SCCF:53:1,2016-08-05T19:00:00Z,26.6493,-81.8810,5.85,1111122 
SCCF RECON,ioos:station:SCCF:53:1,2016-08-05T20:00:00Z,26.6493,-81.8810,6.26,1111122 
SCCF RECON,ioos:station:SCCF:53:1,2016-08-05T21:00:00Z,26.6493,-81.8810,5.78,1111122 
SCCF RECON,ioos:station:SCCF:53:1,2016-08-05T22:00:00Z,26.6493,-81.8810,5.76,1111122 
SCCF RECON,ioos:station:SCCF:53:1,2016-08-05T23:00:00Z,26.6493,-81.8810,6.23,1111122 
SCCF RECON,ioos:station:SCCF:53:1,2016-08-06T00:00:00Z,26.6493,-81.8810,6.57,1111122 
SCCF RECON,ioos:station:SCCF:53:1,2016-08-06T01:00:00Z,26.6493,-81.8810,5.91,1111122 
SCCF RECON,ioos:station:SCCF:53:1,2016-08-06T02:00:00Z,26.6493,-81.8810,5.67,1111122 
SCCF RECON,ioos:station:SCCF:53:1,2016-08-06T03:00:00Z,26.6493,-81.8810,5.79,1111122 
SCCF RECON,ioos:station:SCCF:53:1,2016-08-06T04:00:00Z,26.6493,-81.8810,5.6,1111122 
SCCF RECON,ioos:station:SCCF:53:1,2016-08-06T05:00:00Z,26.6493,-81.8810,5.54,1111122 
SCCF RECON,ioos:station:SCCF:53:1,2016-08-06T06:00:00Z,26.6493,-81.8810,5.71,1111122 
SCCF RECON,ioos:station:SCCF:53:1,2016-08-06T07:00:00Z,26.6493,-81.8810,5.69,1111122 
SCCF RECON,ioos:station:SCCF:53:1,2016-08-06T08:00:00Z,26.6493,-81.8810,5.69,1111122 
SCCF RECON,ioos:station:SCCF:53:1,2016-08-06T09:00:00Z,26.6493,-81.8810,5.71,1111122 
SCCF RECON,ioos:station:SCCF:53:1,2016-08-06T10:00:00Z,26.6493,-81.8810,5.71,1111122 
SCCF RECON,ioos:station:SCCF:53:1,2016-08-06T11:00:00Z,26.6493,-81.8810,5.74,1111122 
SCCF RECON,ioos:station:SCCF:53:1,2016-08-06T12:00:00Z,26.6493,-81.8810,5.53,1111122 
SCCF RECON,ioos:station:SCCF:53:1,2016-08-06T13:00:00Z,26.6493,-81.8810,5.55,1111122 
SCCF RECON,ioos:station:SCCF:53:1,2016-08-06T14:00:00Z,26.6493,-81.8810,5.54,1111122 
SCCF RECON,ioos:station:SCCF:53:1,2016-08-06T15:00:00Z,26.6493,-81.8810,5.64,1111122 
SCCF RECON,ioos:station:SCCF:53:1,2016-08-06T16:00:00Z,26.6493,-81.8810,5.49,1111122 
SCCF RECON,ioos:station:SCCF:53:1,2016-08-06T17:00:00Z,26.6493,-81.8810,5.83,1111122 
SCCF RECON,ioos:station:SCCF:53:1,2016-08-06T18:00:00Z,26.6493,-81.8810,5.81,1111122 
SCCF RECON,ioos:station:SCCF:53:1,2016-08-06T19:00:00Z,26.6493,-81.8810,5.97,1111122 
SCCF RECON,ioos:station:SCCF:53:1,2016-08-06T20:00:00Z,26.6493,-81.8810,6.04,1111122 
SCCF RECON,ioos:station:SCCF:53:1,2016-08-06T21:00:00Z,26.6493,-81.8810,6.06,1111122 
SCCF RECON,ioos:station:SCCF:53:1,2016-08-06T22:00:00Z,26.6493,-81.8810,6.12,1111122 
SCCF RECON,ioos:station:SCCF:53:1,2016-08-06T23:00:00Z,26.6493,-81.8810,6.07,1111122 
SCCF RECON,ioos:station:SCCF:53:1,2016-08-07T00:00:00Z,26.6493,-81.8810,5.88,1111122 
SCCF RECON,ioos:station:SCCF:53:1,2016-08-07T01:00:00Z,26.6493,-81.8810,5.71,1111122 
SCCF RECON,ioos:station:SCCF:53:1,2016-08-07T02:00:00Z,26.6493,-81.8810,5.54,1111122 
SCCF RECON,ioos:station:SCCF:53:1,2016-08-07T03:00:00Z,26.6493,-81.8810,5.51,1111122 
SCCF RECON,ioos:station:SCCF:53:1,2016-08-07T04:00:00Z,26.6493,-81.8810,5.59,1111122 
SCCF RECON,ioos:station:SCCF:53:1,2016-08-07T05:00:00Z,26.6493,-81.8810,5.54,1111122 
SCCF RECON,ioos:station:SCCF:53:1,2016-08-07T06:00:00Z,26.6493,-81.8810,5.49,1111122 
SCCF RECON,ioos:station:SCCF:53:1,2016-08-07T07:00:00Z,26.6493,-81.8810,5.51,1111122 
SCCF RECON,ioos:station:SCCF:53:1,2016-08-07T08:00:00Z,26.6493,-81.8810,5.62,1111122 
SCCF RECON,ioos:station:SCCF:53:1,2016-08-07T09:00:00Z,26.6493,-81.8810,5.59,1111122 
SCCF RECON,ioos:station:SCCF:53:1,2016-08-07T10:00:00Z,26.6493,-81.8810,5.52,1111122 
SCCF RECON,ioos:station:SCCF:53:1,2016-08-07T11:00:00Z,26.6493,-81.8810,5.58,1111122 
SCCF RECON,ioos:station:SCCF:53:1,2016-08-07T12:00:00Z,26.6493,-81.8810,5.6,1111122 
SCCF RECON,ioos:station:SCCF:53:1,2016-08-07T13:00:00Z,26.6493,-81.8810,5.52,1111122 
SCCF RECON,ioos:station:SCCF:53:1,2016-08-07T14:00:00Z,26.6493,-81.8810,5.68,1111122 
SCCF RECON,ioos:station:SCCF:53:1,2016-08-07T15:00:00Z,26.6493,-81.8810,5.71,1111122 
SCCF RECON,ioos:station:SCCF:53:1,2016-08-07T16:00:00Z,26.6493,-81.8810,5.64,1111122 
SCCF RECON,ioos:station:SCCF:53:1,2016-08-07T17:00:00Z,26.6493,-81.8810,5.78,1111122 
SCCF RECON,ioos:station:SCCF:53:1,2016-08-07T18:00:00Z,26.6493,-81.8810,5.76,1111122 
SCCF RECON,ioos:station:SCCF:53:1,2016-08-07T19:00:00Z,26.6493,-81.8810,5.78,1111122 
SCCF RECON,ioos:station:SCCF:53:1,2016-08-07T20:00:00Z,26.6493,-81.8810,5.75,1111122 
SCCF RECON,ioos:station:SCCF:53:1,2016-08-07T21:00:00Z,26.6493,-81.8810,5.74,1111122 
SCCF RECON,ioos:station:SCCF:53:1,2016-08-07T22:00:00Z,26.6493,-81.8810,5.74,1111122 
SCCF RECON,ioos:station:SCCF:53:1,2016-08-07T23:00:00Z,26.6493,-81.8810,5.74,1111122 
SCCF RECON,ioos:station:SCCF:53:1,2016-08-08T00:00:00Z,26.6493,-81.8810,5.68,1111122 
SCCF RECON,ioos:station:SCCF:53:1,2016-08-08T01:00:00Z,26.6493,-81.8810,5.5,1111122 
SCCF RECON,ioos:station:SCCF:53:1,2016-08-08T02:00:00Z,26.6493,-81.8810,5.49,1111122 
SCCF RECON,ioos:station:SCCF:53:1,2016-08-08T03:00:00Z,26.6493,-81.8810,5.48,1111122 
SCCF RECON,ioos:station:SCCF:53:1,2016-08-08T04:00:00Z,26.6493,-81.8810,5.42,1111122 
SCCF RECON,ioos:station:SCCF:53:1,2016-08-08T05:00:00Z,26.6493,-81.8810,5.45,1111122 
SCCF RECON,ioos:station:SCCF:53:1,2016-08-08T06:00:00Z,26.6493,-81.8810,5.42,1111122 
SCCF RECON,ioos:station:SCCF:53:1,2016-08-08T07:00:00Z,26.6493,-81.8810,5.45,1111122 
SCCF RECON,ioos:station:SCCF:53:1,2016-08-08T08:00:00Z,26.6493,-81.8810,5.49,1111122 
SCCF RECON,ioos:station:SCCF:53:1,2016-08-08T09:00:00Z,26.6493,-81.8810,5.48,1111122 
SCCF RECON,ioos:station:SCCF:53:1,2016-08-08T10:00:00Z,26.6493,-81.8810,5.49,1111122 
SCCF RECON,ioos:station:SCCF:53:1,2016-08-08T11:00:00Z,26.6493,-81.8810,5.46,1111122 
SCCF RECON,ioos:station:SCCF:53:1,2016-08-08T12:00:00Z,26.6493,-81.8810,5.53,1111122 
SCCF RECON,ioos:station:SCCF:53:1,2016-08-08T13:00:00Z,26.6493,-81.8810,5.61,1111122 
SCCF RECON,ioos:station:SCCF:53:1,2016-08-08T14:00:00Z,26.6493,-81.8810,5.66,1111122 
SCCF RECON,ioos:station:SCCF:53:1,2016-08-08T15:00:00Z,26.6493,-81.8810,5.62,1111122 
SCCF RECON,ioos:station:SCCF:53:1,2016-08-08T16:00:00Z,26.6493,-81.8810,5.76,1111122 
SCCF RECON,ioos:station:SCCF:53:1,2016-08-08T17:00:00Z,26.6493,-81.8810,5.71,1111122 
SCCF RECON,ioos:station:SCCF:53:1,2016-08-08T18:00:00Z,26.6493,-81.8810,5.79,1111122 
SCCF RECON,ioos:station:SCCF:53:1,2016-08-08T19:00:00Z,26.6493,-81.8810,5.82,1111122 
SCCF RECON,ioos:station:SCCF:53:1,2016-08-08T20:00:00Z,26.6493,-81.8810,5.8,1111122 
SCCF RECON,ioos:station:SCCF:53:1,2016-08-08T21:00:00Z,26.6493,-81.8810,5.69,1111122 
SCCF RECON,ioos:station:SCCF:53:1,2016-08-08T22:00:00Z,26.6493,-81.8810,5.69,1111122 
SCCF RECON,ioos:station:SCCF:53:1,2016-08-08T23:00:00Z,26.6493,-81.8810,5.67,1111122 
SCCF RECON,ioos:station:SCCF:53:1,2016-08-09T00:00:00Z,26.6493,-81.8810,5.65,1111122 
SCCF RECON,ioos:station:SCCF:53:1,2016-08-09T01:00:00Z,26.6493,-81.8810,5.54,1111122 
SCCF RECON,ioos:station:SCCF:53:1,2016-08-09T02:00:00Z,26.6493,-81.8810,5.49,1111122 
SCCF RECON,ioos:station:SCCF:53:1,2016-08-09T03:00:00Z,26.6493,-81.8810,5.45,1111122 
SCCF RECON,ioos:station:SCCF:53:1,2016-08-09T04:00:00Z,26.6493,-81.8810,5.51,1111122 
SCCF RECON,ioos:station:SCCF:53:1,2016-08-09T05:00:00Z,26.6493,-81.8810,5.52,1111122 
SCCF RECON,ioos:station:SCCF:53:1,2016-08-09T06:00:00Z,26.6493,-81.8810,5.59,1111122 
SCCF RECON,ioos:station:SCCF:53:1,2016-08-09T07:00:00Z,26.6493,-81.8810,5.56,1111122 
SCCF RECON,ioos:station:SCCF:53:1,2016-08-09T08:00:00Z,26.6493,-81.8810,5.54,1111122 
SCCF RECON,ioos:station:SCCF:53:1,2016-08-09T09:00:00Z,26.6493,-81.8810,5.54,1111122 
SCCF RECON,ioos:station:SCCF:53:1,2016-08-09T10:00:00Z,26.6493,-81.8810,5.51,1111122 
SCCF RECON,ioos:station:SCCF:53:1,2016-08-09T11:00:00Z,26.6493,-81.8810,5.57,1111122 
SCCF RECON,ioos:station:SCCF:53:1,2016-08-09T12:00:00Z,26.6493,-81.8810,5.68,1111122 
SCCF RECON,ioos:station:SCCF:53:1,2016-08-09T13:00:00Z,26.6493,-81.8810,5.65,1111122 
SCCF RECON,ioos:station:SCCF:53:1,2016-08-09T14:00:00Z,26.6493,-81.8810,5.59,1111122 
SCCF RECON,ioos:station:SCCF:53:1,2016-08-09T15:00:00Z,26.6493,-81.8810,5.45,1111122 
SCCF RECON,ioos:station:SCCF:53:1,2016-08-09T16:00:00Z,26.6493,-81.8810,5.6,1111122 
SCCF RECON,ioos:station:SCCF:53:1,2016-08-09T17:00:00Z,26.6493,-81.8810,5.61,1111122 
SCCF RECON,ioos:station:SCCF:53:1,2016-08-09T18:00:00Z,26.6493,-81.8810,5.62,1111122 
SCCF RECON,ioos:station:SCCF:53:1,2016-08-09T19:00:00Z,26.6493,-81.8810,5.51,1111122 
SCCF RECON,ioos:station:SCCF:53:1,2016-08-09T20:00:00Z,26.6493,-81.8810,5.54,1111122 
SCCF RECON,ioos:station:SCCF:53:1,2016-08-09T21:00:00Z,26.6493,-81.8810,5.59,1111122 
SCCF RECON,ioos:station:SCCF:53:1,2016-08-09T22:00:00Z,26.6493,-81.8810,5.65,1111122 
SCCF RECON,ioos:station:SCCF:53:1,2016-08-09T23:00:00Z,26.6493,-81.8810,5.6,1111122 
SCCF RECON,ioos:station:SCCF:53:1,2016-08-10T00:00:00Z,26.6493,-81.8810,5.48,1111122 
SCCF RECON,ioos:station:SCCF:53:1,2016-08-10T01:00:00Z,26.6493,-81.8810,5.49,1111122 
SCCF RECON,ioos:station:SCCF:53:1,2016-08-10T02:00:00Z,26.6493,-81.8810,5.48,1111122 
SCCF RECON,ioos:station:SCCF:53:1,2016-08-10T03:00:00Z,26.6493,-81.8810,5.43,1111122 
SCCF RECON,ioos:station:SCCF:53:1,2016-08-10T04:00:00Z,26.6493,-81.8810,5.47,1111122 
SCCF RECON,ioos:station:SCCF:53:1,2016-08-10T05:00:00Z,26.6493,-81.8810,5.47,1111122 
SCCF RECON,ioos:station:SCCF:53:1,2016-08-10T06:00:00Z,26.6493,-81.8810,5.5,1111122 
SCCF RECON,ioos:station:SCCF:53:1,2016-08-10T07:00:00Z,26.6493,-81.8810,5.55,1111122 
SCCF RECON,ioos:station:SCCF:53:1,2016-08-10T08:00:00Z,26.6493,-81.8810,5.56,1111122 
SCCF RECON,ioos:station:SCCF:53:1,2016-08-10T09:00:00Z,26.6493,-81.8810,5.55,1111122 
SCCF RECON,ioos:station:SCCF:53:1,2016-08-10T10:00:00Z,26.6493,-81.8810,5.55,1111122 
SCCF RECON,ioos:station:SCCF:53:1,2016-08-10T11:00:00Z,26.6493,-81.8810,5.58,1111122 
SCCF RECON,ioos:station:SCCF:53:1,2016-08-10T12:00:00Z,26.6493,-81.8810,5.69,1111122 
SCCF RECON,ioos:station:SCCF:53:1,2016-08-10T13:00:00Z,26.6493,-81.8810,5.68,1111122 
SCCF RECON,ioos:station:SCCF:53:1,2016-08-10T14:00:00Z,26.6493,-81.8810,5.61,1111122 
SCCF RECON,ioos:station:SCCF:53:1,2016-08-10T15:00:00Z,26.6493,-81.8810,5.49,1111122 
SCCF RECON,ioos:station:SCCF:53:1,2016-08-10T16:00:00Z,26.6493,-81.8810,5.54,1111122 
SCCF RECON,ioos:station:SCCF:53:1,2016-08-10T17:00:00Z,26.6493,-81.8810,5.57,1111122 
SCCF RECON,ioos:station:SCCF:53:1,2016-08-10T18:00:00Z,26.6493,-81.8810,5.5,1111122 
SCCF RECON,ioos:station:SCCF:53:1,2016-08-10T19:00:00Z,26.6493,-81.8810,5.51,1111122 
SCCF RECON,ioos:station:SCCF:53:1,2016-08-10T20:00:00Z,26.6493,-81.8810,5.5,1111122 
SCCF RECON,ioos:station:SCCF:53:1,2016-08-10T21:00:00Z,26.6493,-81.8810,5.46,1111122 
SCCF RECON,ioos:station:SCCF:53:1,2016-08-10T22:00:00Z,26.6493,-81.8810,5.89,1111122 
SCCF RECON,ioos:station:SCCF:53:1,2016-08-10T23:00:00Z,26.6493,-81.8810,5.65,1111122 
SCCF RECON,ioos:station:SCCF:53:1,2016-08-11T00:00:00Z,26.6493,-81.8810,5.78,1111122 
SCCF RECON,ioos:station:SCCF:53:1,2016-08-11T01:00:00Z,26.6493,-81.8810,5.78,1111122 
SCCF RECON,ioos:station:SCCF:53:1,2016-08-11T02:00:00Z,26.6493,-81.8810,5.66,1111122 
SCCF RECON,ioos:station:SCCF:53:1,2016-08-11T03:00:00Z,26.6493,-81.8810,5.77,1111122 
SCCF RECON,ioos:station:SCCF:53:1,2016-08-11T04:00:00Z,26.6493,-81.8810,5.72,1111122 
SCCF RECON,ioos:station:SCCF:53:1,2016-08-11T05:00:00Z,26.6493,-81.8810,5.71,1111122 
SCCF RECON,ioos:station:SCCF:53:1,2016-08-11T06:00:00Z,26.6493,-81.8810,5.71,1111122 
SCCF RECON,ioos:station:SCCF:53:1,2016-08-11T07:00:00Z,26.6493,-81.8810,5.73,1111122 
SCCF RECON,ioos:station:SCCF:53:1,2016-08-11T08:00:00Z,26.6493,-81.8810,5.71,1111122 
SCCF RECON,ioos:station:SCCF:53:1,2016-08-11T09:00:00Z,26.6493,-81.8810,5.82,1111122 
SCCF RECON,ioos:station:SCCF:53:1,2016-08-11T10:00:00Z,26.6493,-81.8810,5.78,1111122 
SCCF RECON,ioos:station:SCCF:53:1,2016-08-11T11:00:00Z,26.6493,-81.8810,5.76,1111122 
SCCF RECON,ioos:station:SCCF:53:1,2016-08-11T12:00:00Z,26.6493,-81.8810,5.91,1111122 
SCCF RECON,ioos:station:SCCF:53:1,2016-08-11T13:00:00Z,26.6493,-81.8810,5.88,1111122 
SCCF RECON,ioos:station:SCCF:53:1,2016-08-11T14:00:00Z,26.6493,-81.8810,5.8,1111122 
SCCF RECON,ioos:station:SCCF:53:1,2016-08-11T15:00:00Z,26.6493,-81.8810,5.6,1111122 
SCCF RECON,ioos:station:SCCF:53:1,2016-08-11T16:00:00Z,26.6493,-81.8810,5.58,1111122 
SCCF RECON,ioos:station:SCCF:53:1,2016-08-11T17:00:00Z,26.6493,-81.8810,5.6,1111122 
SCCF RECON,ioos:station:SCCF:53:1,2016-08-11T18:00:00Z,26.6493,-81.8810,5.63,1111122 
SCCF RECON,ioos:station:SCCF:53:1,2016-08-11T19:00:00Z,26.6493,-81.8810,5.56,1111122 
SCCF RECON,ioos:station:SCCF:53:1,2016-08-11T20:00:00Z,26.6493,-81.8810,5.57,1111122 
SCCF RECON,ioos:station:SCCF:53:1,2016-08-11T21:00:00Z,26.6493,-81.8810,5.56,1111122 
SCCF RECON,ioos:station:SCCF:53:1,2016-08-11T22:00:00Z,26.6493,-81.8810,5.7,1111122 
SCCF RECON,ioos:station:SCCF:53:1,2016-08-11T23:00:00Z,26.6493,-81.8810,5.89,1111122 
SCCF RECON,ioos:station:SCCF:53:1,2016-08-12T00:00:00Z,26.6493,-81.8810,5.95,1111122 
SCCF RECON,ioos:station:SCCF:53:1,2016-08-12T01:00:00Z,26.6493,-81.8810,5.89,1111122 
SCCF RECON,ioos:station:SCCF:53:1,2016-08-12T02:00:00Z,26.6493,-81.8810,5.82,1111122 
SCCF RECON,ioos:station:SCCF:53:1,2016-08-12T03:00:00Z,26.6493,-81.8810,5.81,1111122 
SCCF RECON,ioos:station:SCCF:53:1,2016-08-12T04:00:00Z,26.6493,-81.8810,5.77,1111122 
SCCF RECON,ioos:station:SCCF:53:1,2016-08-12T05:00:00Z,26.6493,-81.8810,5.77,1111122 
SCCF RECON,ioos:station:SCCF:53:1,2016-08-12T06:00:00Z,26.6493,-81.8810,5.82,1111122 
SCCF RECON,ioos:station:SCCF:53:1,2016-08-12T07:00:00Z,26.6493,-81.8810,5.65,1111122 
SCCF RECON,ioos:station:SCCF:53:1,2016-08-12T08:00:00Z,26.6493,-81.8810,5.75,1111122 
SCCF RECON,ioos:station:SCCF:53:1,2016-08-12T09:00:00Z,26.6493,-81.8810,5.86,1111122 
SCCF RECON,ioos:station:SCCF:53:1,2016-08-12T10:00:00Z,26.6493,-81.8810,5.96,1111122 
SCCF RECON,ioos:station:SCCF:53:1,2016-08-12T11:00:00Z,26.6493,-81.8810,5.98,1111122 
SCCF RECON,ioos:station:SCCF:53:1,2016-08-12T12:00:00Z,26.6493,-81.8810,6.11,1111122 
SCCF RECON,ioos:station:SCCF:53:1,2016-08-12T13:00:00Z,26.6493,-81.8810,5.99,1111122 
SCCF RECON,ioos:station:SCCF:53:1,2016-08-12T14:00:00Z,26.6493,-81.8810,5.99,1111122 
SCCF RECON,ioos:station:SCCF:53:1,2016-08-12T15:00:00Z,26.6493,-81.8810,5.96,1111122 
SCCF RECON,ioos:station:SCCF:53:1,2016-08-12T16:00:00Z,26.6493,-81.8810,5.59,1111122 
SCCF RECON,ioos:station:SCCF:53:1,2016-08-12T17:00:00Z,26.6493,-81.8810,5.48,1111122 
SCCF RECON,ioos:station:SCCF:53:1,2016-08-12T18:00:00Z,26.6493,-81.8810,5.4,1111122 
SCCF RECON,ioos:station:SCCF:53:1,2016-08-12T19:00:00Z,26.6493,-81.8810,5.43,1111122 
SCCF RECON,ioos:station:SCCF:53:1,2016-08-12T20:00:00Z,26.6493,-81.8810,5.83,1111122 
SCCF RECON,ioos:station:SCCF:53:1,2016-08-12T21:00:00Z,26.6493,-81.8810,5.62,1111122 
SCCF RECON,ioos:station:SCCF:53:1,2016-08-12T22:00:00Z,26.6493,-81.8810,6.15,1111122 
SCCF RECON,ioos:station:SCCF:53:1,2016-08-12T23:00:00Z,26.6493,-81.8810,5.86,1111122 
SCCF RECON,ioos:station:SCCF:53:1,2016-08-13T00:00:00Z,26.6493,-81.8810,5.71,1111122 
SCCF RECON,ioos:station:SCCF:53:1,2016-08-13T01:00:00Z,26.6493,-81.8810,5.95,1111122 
SCCF RECON,ioos:station:SCCF:53:1,2016-08-13T02:00:00Z,26.6493,-81.8810,5.86,1111122 
SCCF RECON,ioos:station:SCCF:53:1,2016-08-13T03:00:00Z,26.6493,-81.8810,5.98,1111122 
SCCF RECON,ioos:station:SCCF:53:1,2016-08-13T04:00:00Z,26.6493,-81.8810,6.12,1111122 
SCCF RECON,ioos:station:SCCF:53:1,2016-08-13T05:00:00Z,26.6493,-81.8810,5.93,1111122 
SCCF RECON,ioos:station:SCCF:53:1,2016-08-13T06:00:00Z,26.6493,-81.8810,5.62,1111122 
SCCF RECON,ioos:station:SCCF:53:1,2016-08-13T07:00:00Z,26.6493,-81.8810,5.81,1111122 
SCCF RECON,ioos:station:SCCF:53:1,2016-08-13T08:00:00Z,26.6493,-81.8810,5.89,1111122 
SCCF RECON,ioos:station:SCCF:53:1,2016-08-13T09:00:00Z,26.6493,-81.8810,5.82,1111122 
SCCF RECON,ioos:station:SCCF:53:1,2016-08-13T10:00:00Z,26.6493,-81.8810,5.75,1111122 
SCCF RECON,ioos:station:SCCF:53:1,2016-08-13T11:00:00Z,26.6493,-81.8810,5.77,1111122 
SCCF RECON,ioos:station:SCCF:53:1,2016-08-13T12:00:00Z,26.6493,-81.8810,5.9,1111122 
SCCF RECON,ioos:station:SCCF:53:1,2016-08-13T13:00:00Z,26.6493,-81.8810,6.26,1111122 
SCCF RECON,ioos:station:SCCF:53:1,2016-08-13T14:00:00Z,26.6493,-81.8810,5.93,1111122 
SCCF RECON,ioos:station:SCCF:53:1,2016-08-13T15:00:00Z,26.6493,-81.8810,5.83,1111122 
SCCF RECON,ioos:station:SCCF:53:1,2016-08-13T16:00:00Z,26.6493,-81.8810,5.66,1111122 
SCCF RECON,ioos:station:SCCF:53:1,2016-08-13T17:00:00Z,26.6493,-81.8810,5.6,1111122 
SCCF RECON,ioos:station:SCCF:53:1,2016-08-13T18:00:00Z,26.6493,-81.8810,5.54,1111122 
SCCF RECON,ioos:station:SCCF:53:1,2016-08-13T19:00:00Z,26.6493,-81.8810,5.46,1111122 
SCCF RECON,ioos:station:SCCF:53:1,2016-08-13T20:00:00Z,26.6493,-81.8810,5.57,1111122 
SCCF RECON,ioos:station:SCCF:53:1,2016-08-13T21:00:00Z,26.6493,-81.8810,5.66,1111122 
SCCF RECON,ioos:station:SCCF:53:1,2016-08-13T22:00:00Z,26.6493,-81.8810,5.47,1111122 
SCCF RECON,ioos:station:SCCF:53:1,2016-08-13T23:00:00Z,26.6493,-81.8810,5.77,1111122 
SCCF RECON,ioos:station:SCCF:53:1,2016-08-14T00:00:00Z,26.6493,-81.8810,5.62,1111122 
SCCF RECON,ioos:station:SCCF:53:1,2016-08-14T01:00:00Z,26.6493,-81.8810,5.44,1111122 
SCCF RECON,ioos:station:SCCF:53:1,2016-08-14T02:00:00Z,26.6493,-81.8810,5.46,1111122 
SCCF RECON,ioos:station:SCCF:53:1,2016-08-14T03:00:00Z,26.6493,-81.8810,5.46,1111122 
SCCF RECON,ioos:station:SCCF:53:1,2016-08-14T04:00:00Z,26.6493,-81.8810,5.99,1111122 
SCCF RECON,ioos:station:SCCF:53:1,2016-08-14T05:00:00Z,26.6493,-81.8810,5.83,1111122 
SCCF RECON,ioos:station:SCCF:53:1,2016-08-14T06:00:00Z,26.6493,-81.8810,5.7,1111122 
SCCF RECON,ioos:station:SCCF:53:1,2016-08-14T07:00:00Z,26.6493,-81.8810,5.74,1111122 
SCCF RECON,ioos:station:SCCF:53:1,2016-08-14T08:00:00Z,26.6493,-81.8810,5.64,1111122 
SCCF RECON,ioos:station:SCCF:53:1,2016-08-14T09:00:00Z,26.6493,-81.8810,5.69,1111122 
SCCF RECON,ioos:station:SCCF:53:1,2016-08-14T10:00:00Z,26.6493,-81.8810,5.48,1111122 
SCCF RECON,ioos:station:SCCF:53:1,2016-08-14T11:00:00Z,26.6493,-81.8810,5.59,1111122 
SCCF RECON,ioos:station:SCCF:53:1,2016-08-14T12:00:00Z,26.6493,-81.8810,5.53,1111122 
SCCF RECON,ioos:station:SCCF:53:1,2016-08-14T13:00:00Z,26.6493,-81.8810,5.73,1111122 
SCCF RECON,ioos:station:SCCF:53:1,2016-08-14T14:00:00Z,26.6493,-81.8810,5.7,1111122 
SCCF RECON,ioos:station:SCCF:53:1,2016-08-14T15:00:00Z,26.6493,-81.8810,5.87,1111122 
SCCF RECON,ioos:station:SCCF:53:1,2016-08-14T16:00:00Z,26.6493,-81.8810,5.93,1111122 
SCCF RECON,ioos:station:SCCF:53:1,2016-08-14T17:00:00Z,26.6493,-81.8810,5.92,1111122 
SCCF RECON,ioos:station:SCCF:53:1,2016-08-14T18:00:00Z,26.6493,-81.8810,5.75,1111122 
SCCF RECON,ioos:station:SCCF:53:1,2016-08-14T19:00:00Z,26.6493,-81.8810,5.9,1111122 
SCCF RECON,ioos:station:SCCF:53:1,2016-08-14T20:00:00Z,26.6493,-81.8810,5.59,1111122 
SCCF RECON,ioos:station:SCCF:53:1,2016-08-14T21:00:00Z,26.6493,-81.8810,5.74,1111122 
SCCF RECON,ioos:station:SCCF:53:1,2016-08-14T22:00:00Z,26.6493,-81.8810,5.62,1111122 
SCCF RECON,ioos:station:SCCF:53:1,2016-08-14T23:00:00Z,26.6493,-81.8810,5.66,1111122 
SCCF RECON,ioos:station:SCCF:53:1,2016-08-15T00:00:00Z,26.6493,-81.8810,5.6,1111122 
SCCF RECON,ioos:station:SCCF:53:1,2016-08-15T01:00:00Z,26.6493,-81.8810,5.68,1111122 
SCCF RECON,ioos:station:SCCF:53:1,2016-08-15T02:00:00Z,26.6493,-81.8810,5.61,1111122 
SCCF RECON,ioos:station:SCCF:53:1,2016-08-15T03:00:00Z,26.6493,-81.8810,5.58,1111122 
SCCF RECON,ioos:station:SCCF:53:1,2016-08-15T04:00:00Z,26.6493,-81.8810,5.7,1111122 
SCCF RECON,ioos:station:SCCF:53:1,2016-08-15T05:00:00Z,26.6493,-81.8810,5.65,1111122 
SCCF RECON,ioos:station:SCCF:53:1,2016-08-15T06:00:00Z,26.6493,-81.8810,5.69,1111122 
SCCF RECON,ioos:station:SCCF:53:1,2016-08-15T07:00:00Z,26.6493,-81.8810,5.7,1111122 